Location: ??? ????
(38.0580°N, 23.1536°E)
Time: 13:35:09
(UTC+00:00)

IRAS Rocket - Pass Details

Date: 13 December 2025
Orbit: 846 x 875 km, 100.1° (Epoch: 17 January)

Event Time Altitude Azimuth Distance (km) Brightness Sun altitude
Rises 17:08:39 0° 162° (SSE) 3,403 7.3 -22.9°
Reaches altitude 10° 17:11:00 10° 162° (SSE) 2,467 6.6 -23.4°
Maximum altitude 17:16:29 87° 73° (ENE) 854 4.1 -24.4°
Drops below altitude 10° 17:21:58 10° 346° (NNW) 2,475 6.7 -25.5°
Sets 17:24:20 0° 346° (NNW) 3,413 7.4 -26.0°
